KC1SQ Weather Reports


time (UTC)temp
C
wind
direction
speed
KPH
gust
KPH
rain 1hr
cm
rain 24hr
cm
rain mn
cm
humidity
%
barometer
mb
20260507223721 15 271 0.0 1.6 0.00 0.15 0.08 23 1004.3
20260507223437 15 271 0.0 3.2 0.00 0.15 0.08 25 1004.2
20260507222709 16 272 0.0 3.2 0.00 0.15 0.08 22 1004.1
20260507222204 16 180 0.0 0.0 0.00 0.15 0.08 23 1003.9
20260507221658 16 300 0.0 0.0 0.00 0.15 0.08 21 1004.0
20260507221151 16 294 0.0 1.6 0.00 0.15 0.08 20 1004.0
20260507220645 16 339 0.0 6.4 0.00 0.15 0.08 22 1004.1
20260507220139 16 224 1.6 8.0 0.00 0.15 0.08 21 1004.0
20260507215633 16 257 1.6 8.0 0.00 0.15 0.08 21 1004.0
20260507215127 16 303 1.6 6.4 0.00 0.18 0.08 21 1004.0
20260507214620 16 275 1.6 8.0 0.00 0.18 0.08 19 1003.9
20260507214113 16 200 1.6 8.0 0.00 0.18 0.08 23 1003.9
20260507213607 16 265 1.6 4.8 0.00 0.18 0.08 22 1003.9
20260507213101 16 248 0.0 3.2 0.00 0.18 0.08 22 1003.9
20260507212815 16 267 0.0 0.0 0.00 0.18 0.08 19 1004.0
20260507212049 16 281 0.0 0.0 0.00 0.18 0.08 21 1003.9
20260507211543 16 254 0.0 0.0 0.00 0.18 0.08 20 1003.9
20260507211037 17 302 0.0 0.0 0.00 0.18 0.08 19 1003.8
20260507210531 17 333 0.0 0.0 0.00 0.18 0.08 18 1003.8
20260507210027 17 346 1.6 6.4 0.00 0.20 0.08 20 1003.8
20260507205526 16 347 1.6 6.4 0.00 0.20 0.08 21 1003.8
20260507205249 16 236 1.6 8.0 0.00 0.20 0.08 23 1003.7
20260507204527 16 227 1.6 8.0 0.00 0.23 0.08 20 1003.6
20260507204028 16 257 1.6 12.9 0.00 0.23 0.08 20 1003.7
20260507203526 17 337 3.2 12.9 0.00 0.25 0.08 20 1003.9
20260507203027 17 247 3.2 12.9 0.00 0.25 0.08 18 1003.7
20260507202526 18 207 1.6 12.9 0.00 0.25 0.08 16 1003.7
20260507202026 19 223 1.6 4.8 0.00 0.28 0.08 17 1003.6
20260507201527 19 242 3.2 6.4 0.00 0.28 0.08 18 1003.8
20260507201028 18 225 1.6 6.4 0.00 0.28 0.08 21 1003.8
20260507200745 18 337 0.0 4.8 0.00 0.30 0.08 18 1003.8
20260507200026 18 254 0.0 0.0 0.00 0.30 0.08 19 1003.8
20260507195528 18 278 0.0 4.8 0.00 0.30 0.08 19 1003.8
20260507195254 17 329 1.6 4.8 0.00 0.33 0.08 22 1003.8
20260507194528 17 283 1.6 4.8 0.00 0.33 0.08 21 1003.9
20260507194247 17 261 3.2 9.7 0.00 0.33 0.08 20 1003.8
20260507193521 18 333 1.6 9.7 0.00 0.33 0.08 20 1003.8
20260507193015 18 234 0.0 0.0 0.00 0.36 0.08 21 1003.9
20260507192509 17 355 0.0 0.0 0.00 0.36 0.08 20 1003.9
20260507192005 17 196 0.0 0.0 0.00 0.38 0.08 21 1004.0
20260507191457 17 267 0.0 0.0 0.00 0.41 0.08 22 1003.9
20260507191213 17 268 0.0 0.0 0.00 0.41 0.08 22 1004.0
20260507190706 16 221 0.0 0.0 0.00 0.43 0.08 24 1004.1
20260507185939 16 285 0.0 0.0 0.00 0.43 0.08 26 1004.2
20260507185433 16 0 0.0 0.0 0.00 0.46 0.08 25 1004.1
20260507184927 17 244 1.6 9.7 0.00 0.48 0.08 24 1004.2
20260507184421 18 251 3.2 9.7 0.00 0.51 0.08 24 1004.1
20260507184136 18 299 1.6 4.8 0.00 0.53 0.08 22 1004.1
20260507183409 18 15 1.6 4.8 0.00 0.56 0.08 24 1004.1
20260507182903 17 0 1.6 4.8 0.00 0.56 0.08 26 1004.1
20260507182358 17 263 3.2 9.7 0.00 0.61 0.08 23 1004.1
20260507181851 18 260 1.6 9.7 0.00 0.64 0.08 23 1004.2
20260507181345 18 315 0.0 6.4 0.00 0.64 0.08 23 1004.1
20260507180839 18 265 0.0 0.0 0.00 0.64 0.08 24 1004.2
20260507180333 17 242 0.0 0.0 0.00 0.64 0.08 22 1004.1
20260507175827 17 323 0.0 0.0 0.00 0.64 0.08 21 1004.2
20260507175327 17 269 0.0 0.0 0.00 0.64 0.08 25 1004.1
20260507174824 17 149 0.0 0.0 0.00 0.64 0.08 28 1004.3
20260507174324 17 315 0.0 0.0 0.00 0.64 0.08 32 1004.2
20260507173825 16 275 0.0 0.0 0.00 0.64 0.08 31 1004.4
20260507173324 16 292 0.0 0.0 0.00 0.64 0.08 34 1004.4
20260507172824 17 209 0.0 0.0 0.00 0.64 0.08 35 1004.4
20260507172323 17 169 0.0 0.0 0.00 0.64 0.08 31 1004.4
20260507171824 16 337 0.0 0.0 0.00 0.64 0.08 30 1004.4
20260507171323 16 253 0.0 0.0 0.00 0.64 0.08 34 1004.5
20260507171044 16 190 0.0 0.0 0.00 0.64 0.08 34 1004.6
20260507170324 16 233 0.0 0.0 0.00 0.64 0.08 34 1004.6
20260507165825 16 206 0.0 0.0 0.00 0.64 0.08 34 1004.6
20260507165325 16 187 0.0 0.0 0.00 0.64 0.08 37 1004.7
20260507164824 16 272 1.6 8.0 0.00 0.64 0.08 34 1004.6
20260507164543 16 169 3.2 11.3 0.00 0.64 0.08 36 1004.8
20260507163824 17 196 3.2 11.3 0.00 0.64 0.08 35 1004.8
20260507163545 16 213 3.2 16.1 0.00 0.64 0.08 38 1004.7
20260507163045 16 198 3.2 16.1 0.00 0.64 0.08 39 1004.8
20260507162313 16 289 3.2 12.9 0.00 0.64 0.08 36 1004.8
20260507161807 17 286 1.6 12.9 0.00 0.64 0.08 35 1004.7
20260507161301 17 214 0.0 0.0 0.00 0.64 0.08 35 1004.8
20260507160755 16 317 0.0 0.0 0.00 0.64 0.08 37 1004.7
20260507160249 16 239 0.0 0.0 0.00 0.64 0.08 38 1004.9
20260507155742 16 213 0.0 0.0 0.00 0.64 0.08 39 1004.9
20260507155243 16 203 0.0 0.0 0.00 0.64 0.08 38 1005.1
20260507154740 15 84 0.0 0.0 0.00 0.64 0.08 40 1005.2
20260507154238 15 69 0.0 0.0 0.00 0.64 0.08 39 1005.3
20260507153957 15 28 0.0 0.0 0.00 0.64 0.08 39 1005.2
20260507153239 15 5 0.0 0.0 0.00 0.64 0.08 38 1005.2
20260507152737 15 226 0.0 0.0 0.00 0.64 0.08 44 1005.3
20260507152500 14 193 0.0 0.0 0.00 0.64 0.08 50 1005.4
20260507151735 13 53 0.0 0.0 0.00 0.64 0.08 47 1005.3
20260507151456 13 53 0.0 0.0 0.00 0.64 0.08 47 1005.3
20260507150735 13 53 0.0 0.0 0.00 0.64 0.08 46 1005.3
20260507150500 13 53 0.0 0.0 0.00 0.64 0.08 47 1005.4
20260507145735 13 53 0.0 0.0 0.00 0.64 0.08 47 1005.3
20260507145235 13 53 0.0 4.8 0.00 0.64 0.08 47 1005.4
20260507144730 13 53 1.6 6.4 0.00 0.64 0.08 48 1005.4
20260507144712 14 65 3.2 6.4 0.00 0.64 0.08 47 1005.4
20260507143730 14 59 1.6 6.4 0.00 0.64 0.08 48 1005.4
20260507143231 14 55 0.0 0.0 0.00 0.64 0.08 50 1005.5
20260507142730 14 57 0.0 0.0 0.00 0.64 0.08 49 1005.5
20260507142230 13 66 0.0 0.0 0.00 0.64 0.08 49 1005.4
20260507141730 13 108 0.0 0.0 0.00 0.64 0.08 52 1005.5
20260507141230 14 61 0.0 0.0 0.00 0.64 0.08 52 1005.6
20260507140731 14 81 0.0 0.0 0.00 0.64 0.08 53 1005.7
20260507140447 13 205 0.0 0.0 0.00 0.64 0.08 56 1005.8
20260507135727 13 205 0.0 0.0 0.00 0.64 0.08 55 1005.7
20260507135226 13 302 0.0 0.0 0.00 0.64 0.08 56 1005.8
20260507135213 13 169 0.0 0.0 0.00 0.64 0.08 56 1005.8
20260507134451 12 55 0.0 0.0 0.00 0.64 0.08 55 1005.8
20260507133726 12 173 0.0 0.0 0.00 0.64 0.08 57 1005.8
20260507133225 12 202 0.0 0.0 0.00 0.64 0.08 60 1006.0
20260507132726 12 141 0.0 0.0 0.00 0.64 0.08 58 1006.0
20260507132227 12 24 0.0 0.0 0.00 0.64 0.08 60 1006.0
20260507131947 12 329 0.0 0.0 0.00 0.64 0.08 61 1006.2
20260507131225 12 323 0.0 0.0 0.00 0.64 0.08 59 1006.1
20260507130723 11 355 0.0 0.0 0.00 0.64 0.08 63 1006.0
20260507130221 11 321 0.0 0.0 0.00 0.64 0.08 63 1006.1
20260507125721 11 179 0.0 0.0 0.00 0.64 0.08 65 1006.1
20260507125217 11 189 0.0 0.0 0.00 0.64 0.08 65 1006.1
20260507124718 11 211 0.0 0.0 0.00 0.64 0.08 66 1006.1
20260507124219 11 192 0.0 0.0 0.00 0.64 0.08 66 1006.1
20260507123718 11 355 0.0 0.0 0.00 0.64 0.08 68 1006.1
20260507123438 11 175 0.0 0.0 0.00 0.64 0.08 68 1006.2
20260507122717 10 175 0.0 0.0 0.00 0.64 0.08 69 1006.2
20260507122215 10 32 0.0 3.2 0.00 0.64 0.08 68 1006.2
20260507121712 10 32 1.6 6.4 0.00 0.64 0.08 70 1006.2
20260507121433 10 32 1.6 6.4 0.00 0.64 0.08 72 1006.1
20260507120710 9 265 0.0 3.2 0.00 0.64 0.08 72 1006.2
20260507120211 8 31 0.0 0.0 0.00 0.64 0.08 75 1006.2
20260507115709 8 31 0.0 0.0 0.00 0.64 0.08 76 1006.2
20260507115209 8 31 0.0 0.0 0.00 0.64 0.08 76 1006.4
20260507114709 8 31 0.0 0.0 0.00 0.64 0.08 78 1006.4
20260507114202 7 31 0.0 0.0 0.00 0.64 0.08 78 1006.2
20260507113656 7 31 0.0 0.0 0.00 0.64 0.08 78 1006.3
20260507113150 7 31 0.0 0.0 0.00 0.64 0.08 79 1006.2
20260507112644 7 31 0.0 0.0 0.00 0.64 0.08 79 1006.1
20260507112138 7 31 0.0 0.0 0.00 0.64 0.08 79 1006.1
20260507111632 7 31 0.0 0.0 0.00 0.64 0.08 79 1006.3
20260507111126 7 31 0.0 0.0 0.00 0.64 0.08 79 1006.4
20260507110838 6 31 0.0 0.0 0.00 0.64 0.08 79 1006.5
20260507110114 6 31 0.0 0.0 0.00 0.64 0.08 79 1006.6
20260507105608 6 31 0.0 0.0 0.00 0.64 0.08 79 1006.4
20260507105101 7 31 0.0 0.0 0.00 0.64 0.08 79 1006.3
20260507104816 7 31 0.0 0.0 0.00 0.64 0.08 79 1006.3
20260507104050 7 31 0.0 0.0 0.00 0.64 0.08 79 1006.6
20260507103544 7 31 0.0 0.0 0.00 0.64 0.08 79 1006.6
20260507103038 7 31 0.0 0.0 0.00 0.64 0.08 79 1006.5
20260507102532 7 31 0.0 0.0 0.00 0.64 0.08 79 1006.5
20260507102026 7 31 0.0 0.0 0.00 0.64 0.08 79 1006.5
20260507101743 6 31 0.0 0.0 0.00 0.64 0.08 79 1006.8
20260507101013 6 31 0.0 0.0 0.00 0.64 0.08 79 1006.5
20260507100508 7 31 0.0 0.0 0.00 0.64 0.08 78 1006.7
20260507100003 7 31 0.0 0.0 0.00 0.64 0.08 78 1006.6
20260507095456 7 31 0.0 0.0 0.00 0.64 0.08 78 1006.3
20260507094950 7 31 0.0 0.0 0.00 0.64 0.08 78 1006.7
20260507094444 7 31 0.0 0.0 0.00 0.64 0.08 78 1006.3
20260507093938 7 31 0.0 0.0 0.00 0.64 0.08 78 1006.3
20260507093432 7 31 0.0 0.0 0.00 0.64 0.08 78 1006.1
20260507093148 7 31 0.0 0.0 0.00 0.64 0.08 78 1006.0
20260507092420 7 31 0.0 0.0 0.00 0.64 0.08 77 1005.8
20260507091915 7 31 0.0 0.0 0.00 0.64 0.08 77 1005.6
20260507091408 7 31 0.0 0.0 0.00 0.64 0.08 77 1006.0
20260507091122 7 31 0.0 0.0 0.00 0.64 0.08 77 1005.6
20260507090618 7 31 0.0 0.0 0.00 0.64 0.08 77 1006.0
20260507090112 7 31 0.0 0.0 0.00 0.64 0.08 76 1005.8
20260507085344 7 31 0.0 0.0 0.00 0.64 0.08 76 1006.1
20260507084838 7 31 0.0 0.0 0.00 0.64 0.08 76 1006.1
20260507084553 7 31 0.0 0.0 0.00 0.64 0.08 76 1005.9
20260507083826 7 31 0.0 0.0 0.00 0.64 0.08 76 1006.1
20260507083320 7 31 0.0 0.0 0.00 0.64 0.08 76 1006.4
20260507082814 7 31 0.0 0.0 0.00 0.64 0.08 76 1006.2
20260507082308 7 31 0.0 1.6 0.00 0.64 0.08 77 1006.2
20260507082024 7 31 0.0 3.2 0.00 0.64 0.08 77 1005.9
20260507081256 8 31 0.0 3.2 0.00 0.64 0.08 76 1005.9
20260507080750 8 31 0.0 3.2 0.00 0.64 0.08 77 1005.6
20260507080244 8 108 0.0 3.2 0.00 0.64 0.08 76 1006.1
20260507075738 8 140 0.0 3.2 0.00 0.64 0.08 77 1005.9
20260507075232 8 223 0.0 4.8 0.00 0.64 0.08 77 1005.7
20260507074726 8 223 1.6 4.8 0.00 0.64 0.08 77 1005.6
20260507074220 8 311 1.6 6.4 0.00 0.64 0.08 77 1005.5
20260507073714 8 306 1.6 6.4 0.00 0.64 0.08 77 1005.8
20260507073208 8 240 1.6 6.4 0.00 0.64 0.08 77 1005.5
20260507072703 8 347 1.6 4.8 0.00 0.64 0.08 77 1005.6
20260507072156 8 15 1.6 4.8 0.00 0.64 0.08 78 1005.6
20260507071650 9 129 0.0 4.8 0.00 0.64 0.08 79 1005.5
20260507071144 9 5 0.0 1.6 0.00 0.64 0.08 79 1005.6
20260507070638 9 5 0.0 0.0 0.00 0.64 0.08 79 1005.6
20260507070132 9 5 0.0 0.0 0.00 0.64 0.08 79 1005.4
20260507065627 9 5 0.0 1.6 0.00 0.64 0.08 79 1005.5
20260507065120 9 5 0.0 1.6 0.00 0.64 0.08 79 1005.2
20260507064614 9 5 0.0 0.0 0.00 0.64 0.08 79 1005.3
20260507064108 9 5 0.0 0.0 0.00 0.64 0.08 79 1005.2
20260507063602 9 5 0.0 0.0 0.00 0.64 0.08 79 1005.2
20260507063056 9 5 0.0 0.0 0.00 0.64 0.08 79 1005.1
20260507062550 9 5 0.0 0.0 0.00 0.64 0.08 79 1004.9
20260507062310 9 5 0.0 0.0 0.00 0.64 0.08 79 1004.7
20260507061538 9 5 0.0 0.0 0.03 0.64 0.08 79 1004.9
20260507061256 9 5 0.0 0.0 0.03 0.64 0.08 79 1004.9
20260507060753 9 5 0.0 0.0 0.03 0.64 0.08 79 1005.0
20260507060026 10 5 0.0 1.6 0.03 0.64 0.08 79 1004.8
20260507055526 10 5 0.0 1.6 0.03 0.64 0.08 79 1004.8
20260507055025 10 5 0.0 1.6 0.03 0.64 0.08 79 1004.7
20260507054525 10 5 0.0 0.0 0.03 0.64 0.08 79 1004.7
20260507054026 10 5 0.0 0.0 0.03 0.64 0.08 79 1004.7
20260507053525 10 5 0.0 1.6 0.03 0.64 0.08 78 1004.7
20260507053024 10 5 0.0 1.6 0.03 0.64 0.08 78 1004.7
20260507052526 10 5 0.0 1.6 0.03 0.64 0.08 78 1004.6
20260507052252 10 5 0.0 3.2 0.03 0.64 0.08 78 1004.7
20260507051522 10 5 0.0 3.2 0.00 0.61 0.05 78 1004.7
20260507051023 10 339 0.0 0.0 0.03 0.61 0.05 78 1004.7
20260507050523 11 72 0.0 0.0 0.03 0.61 0.05 79 1004.7
20260507050024 11 322 0.0 0.0 0.05 0.61 0.05 79 1004.6
20260507045524 11 103 0.0 0.0 0.08 0.61 0.05 79 1004.5
20260507045024 11 105 0.0 0.0 0.13 0.61 0.05 78 1004.5
20260507044524 11 92 0.0 3.2 0.13 0.61 0.05 78 1004.5
20260507044024 11 48 1.6 3.2 0.13 0.61 0.05 78 1004.5
20260507043524 12 47 0.0 4.8 0.13 0.61 0.05 78 1004.5
20260507043248 12 333 0.0 4.8 0.13 0.61 0.05 78 1004.4
20260507042744 12 240 1.6 6.4 0.13 0.61 0.05 78 1004.4
20260507042022 13 240 1.6 6.4 0.13 0.61 0.05 79 1004.4
20260507041745 13 244 0.0 3.2 0.13 0.61 0.05 80 1004.3
20260507041021 13 244 0.0 1.6 0.10 0.58 0.03 79 1004.1
20260507040520 13 244 0.0 1.6 0.10 0.58 0.03 79 1004.2
20260507040247 13 244 1.6 4.8 0.08 0.56 0.00 80 1004.1
20260507035516 13 244 1.6 4.8 0.03 0.51 0.53 80 1004.1
20260507035235 13 334 1.6 4.8 0.00 0.48 0.48 80 1004.2
20260507034505 13 221 0.0 3.2 0.00 0.48 0.48 80 1004.2
20260507033958 13 220 0.0 3.2 0.00 0.48 0.48 80 1004.0
20260507033452 13 220 0.0 0.0 0.00 0.48 0.48 81 1003.7
20260507032947 13 155 0.0 0.0 0.00 0.48 0.48 81 1003.5
20260507032440 13 155 0.0 0.0 0.00 0.48 0.48 80 1003.5
20260507031934 13 155 0.0 0.0 0.00 0.48 0.48 80 1003.4
20260507031646 13 155 0.0 0.0 0.00 0.48 0.48 80 1003.4
20260507030922 13 155 0.0 0.0 0.00 0.48 0.48 80 1003.4
20260507030416 13 155 0.0 0.0 0.00 0.48 0.48 80 1003.4
20260507025917 13 155 0.0 0.0 0.00 0.48 0.48 80 1003.5
20260507025418 13 155 0.0 0.0 0.00 0.48 0.48 80 1003.3
20260507024915 13 155 0.0 0.0 0.00 0.48 0.48 80 1003.5
20260507024633 13 155 0.0 0.0 0.00 0.48 0.48 80 1003.4
20260507023914 13 155 0.0 0.0 0.00 0.48 0.48 80 1003.5
20260507023413 13 155 0.0 0.0 0.00 0.48 0.48 80 1003.5
20260507023132 13 155 0.0 0.0 0.00 0.48 0.48 80 1003.7
20260507022412 13 155 0.0 0.0 0.00 0.48 0.48 80 1003.7
20260507021910 13 155 0.0 0.0 0.00 0.48 0.48 80 1003.8
20260507021410 13 155 0.0 0.0 0.00 0.48 0.48 80 1003.8
20260507020908 13 155 0.0 0.0 0.00 0.48 0.48 80 1003.6
20260507020406 13 155 0.0 0.0 0.00 0.48 0.48 80 1003.7
20260507020126 13 155 0.0 0.0 0.00 0.48 0.48 80 1003.6
20260507015404 13 155 0.0 0.0 0.00 0.48 0.48 80 1003.8
20260507014900 13 155 0.0 0.0 0.00 0.48 0.48 80 1003.8
20260507014402 13 155 0.0 0.0 0.00 0.48 0.48 80 1003.8
20260507013858 13 155 0.0 3.2 0.00 0.48 0.48 80 1003.8
20260507013618 13 155 0.0 3.2 0.00 0.48 0.48 80 1003.8
20260507012856 13 155 0.0 0.0 0.00 0.48 0.48 80 1003.9
20260507012357 13 155 0.0 1.6 0.00 0.48 0.48 80 1004.0
20260507012120 13 155 0.0 3.2 0.00 0.48 0.48 80 1004.0
20260507011358 13 155 1.6 3.2 0.00 0.48 0.48 80 1004.0
20260507011117 13 155 1.6 3.2 0.00 0.48 0.48 79 1003.9
20260507010356 13 155 0.0 3.2 0.00 0.48 0.48 79 1004.1
20260507005859 13 155 0.0 3.2 0.00 0.48 0.48 79 1004.1
20260507005354 13 155 1.6 3.2 0.00 0.48 0.48 79 1004.2
20260507004853 13 155 1.6 4.8 0.00 0.48 0.48 79 1004.1
20260507004354 13 155 1.6 4.8 0.00 0.48 0.48 79 1004.1
20260507003854 13 155 1.6 4.8 0.00 0.48 0.48 79 1004.1
20260507003356 13 155 1.6 3.2 0.00 0.48 0.48 79 1004.1
20260507003118 13 155 1.6 3.2 0.00 0.48 0.48 79 1004.0
20260507002354 13 155 1.6 3.2 0.00 0.48 0.48 79 1004.0
20260507001852 13 155 1.6 3.2 0.00 0.48 0.48 79 1004.0
20260507001354 13 155 1.6 6.4 0.00 0.48 0.48 79 1004.0
20260507000848 13 155 1.6 6.4 0.00 0.48 0.48 79 1004.0
20260507000350 13 146 1.6 4.8 0.00 0.48 0.48 79 1004.0
20260506235848 13 146 1.6 6.4 0.00 0.48 0.48 79 1003.9
20260506235349 13 172 1.6 6.4 0.00 0.48 0.48 79 1004.0
20260506234849 13 159 0.0 3.2 0.00 0.48 0.48 79 1003.9
20260506234611 13 159 0.0 0.0 0.00 0.48 0.48 79 1004.0
20260506233846 13 159 0.0 0.0 0.00 0.48 0.48 79 1003.8
20260506233343 13 159 0.0 0.0 0.00 0.48 0.48 79 1003.8
20260506232842 13 159 0.0 0.0 0.00 0.48 0.48 79 1003.8
20260506232338 13 159 0.0 0.0 0.00 0.48 0.48 79 1003.9
20260506232057 13 142 0.0 0.0 0.00 0.48 0.48 79 1003.9
20260506231553 13 103 0.0 0.0 0.00 0.48 0.48 79 1004.0
20260506230836 14 165 0.0 0.0 0.00 0.48 0.48 79 1004.0
20260506230336 14 165 0.0 0.0 0.00 0.48 0.48 79 1003.8
20260506230055 14 165 0.0 0.0 0.00 0.48 0.48 79 1003.9
20260506225333 14 165 0.0 0.0 0.00 0.48 0.48 79 1004.1
20260506224828 14 165 0.0 0.0 0.03 0.48 0.48 79 1004.1
20260506224321 14 165 0.0 0.0 0.03 0.48 0.48 79 1004.2